Year,Month,Day,Hour,Minute,Value (Times are PST for temperature in C)
2012,08,27,00,00,12.90
2012,08,27,00,01,12.90
2012,08,27,00,02,12.90
2012,08,27,00,03,12.90
2012,08,27,00,04,12.90
2012,08,27,00,05,12.90
2012,08,27,00,06,12.90
2012,08,27,00,07,12.90
2012,08,27,00,08,12.90
2012,08,27,00,09,12.90
2012,08,27,00,10,12.90
2012,08,27,00,11,12.90
2012,08,27,00,12,12.90
2012,08,27,00,13,12.90
2012,08,27,00,14,12.90
2012,08,27,00,15,12.90
2012,08,27,00,16,13.00
2012,08,27,00,17,13.00
2012,08,27,00,18,13.00
2012,08,27,00,19,13.00
2012,08,27,00,20,13.00
2012,08,27,00,21,13.00
2012,08,27,00,22,13.00
2012,08,27,00,23,13.10
2012,08,27,00,24,13.10
2012,08,27,00,25,13.10
2012,08,27,00,26,13.10
2012,08,27,00,27,13.20
2012,08,27,00,28,13.20
2012,08,27,00,29,13.20
2012,08,27,00,30,13.30
2012,08,27,00,31,13.30
2012,08,27,00,32,13.30
2012,08,27,00,33,13.40
2012,08,27,00,34,13.40
2012,08,27,00,35,13.40
2012,08,27,00,36,13.40
2012,08,27,00,37,13.50
2012,08,27,00,38,13.50
2012,08,27,00,39,13.40
2012,08,27,00,40,13.30
2012,08,27,00,41,13.20
2012,08,27,00,42,13.20
2012,08,27,00,43,13.10
2012,08,27,00,44,13.00
2012,08,27,00,45,13.00
2012,08,27,00,46,12.90
2012,08,27,00,47,12.90
2012,08,27,00,48,12.80
2012,08,27,00,49,12.80
2012,08,27,00,50,12.80
2012,08,27,00,51,12.70
2012,08,27,00,52,12.70
2012,08,27,00,53,12.70
2012,08,27,00,54,12.60
2012,08,27,00,55,12.60
2012,08,27,00,56,12.60
2012,08,27,00,57,12.60
2012,08,27,00,58,12.60
2012,08,27,00,59,12.50
2012,08,27,01,00,12.40
2012,08,27,01,01,12.40
2012,08,27,01,02,12.40
2012,08,27,01,03,12.40
2012,08,27,01,04,12.30
2012,08,27,01,05,12.30
2012,08,27,01,06,12.30
2012,08,27,01,07,12.30
2012,08,27,01,08,12.30
2012,08,27,01,09,12.30
2012,08,27,01,10,12.30
2012,08,27,01,11,12.30
2012,08,27,01,12,12.30
2012,08,27,01,13,12.20
2012,08,27,01,14,12.20
2012,08,27,01,15,12.20
2012,08,27,01,16,12.20
2012,08,27,01,17,12.20
2012,08,27,01,18,12.20
2012,08,27,01,19,12.20
2012,08,27,01,20,12.20
2012,08,27,01,21,12.20
2012,08,27,01,22,12.20
2012,08,27,01,23,12.10
2012,08,27,01,24,12.10
2012,08,27,01,25,12.10
2012,08,27,01,26,12.10
2012,08,27,01,27,12.10
2012,08,27,01,28,12.10
2012,08,27,01,29,12.10
2012,08,27,01,30,12.10
2012,08,27,01,31,12.10
2012,08,27,01,32,12.10
2012,08,27,01,33,12.10
2012,08,27,01,34,12.20
2012,08,27,01,35,12.20
2012,08,27,01,36,12.20
2012,08,27,01,37,12.20
2012,08,27,01,38,12.20
2012,08,27,01,39,12.20
2012,08,27,01,40,12.20
2012,08,27,01,41,12.20
2012,08,27,01,42,12.20
2012,08,27,01,43,12.30
2012,08,27,01,44,12.30
2012,08,27,01,45,12.30
2012,08,27,01,46,12.30
2012,08,27,01,47,12.20
2012,08,27,01,48,12.20
2012,08,27,01,49,12.20
2012,08,27,01,50,12.20
2012,08,27,01,51,12.20
2012,08,27,01,52,12.20
2012,08,27,01,53,12.20
2012,08,27,01,54,12.20
2012,08,27,01,55,12.20
2012,08,27,01,56,12.20
2012,08,27,01,57,12.10
2012,08,27,01,58,12.10
2012,08,27,01,59,12.10
2012,08,27,02,00,12.10
2012,08,27,02,01,12.00
2012,08,27,02,02,12.00
2012,08,27,02,03,11.90
2012,08,27,02,04,11.90
2012,08,27,02,05,11.90
2012,08,27,02,06,11.90
2012,08,27,02,07,11.90
2012,08,27,02,08,11.90
2012,08,27,02,09,11.80
2012,08,27,02,10,11.80
2012,08,27,02,11,11.80
2012,08,27,02,12,11.80
2012,08,27,02,13,11.80
2012,08,27,02,14,11.70
2012,08,27,02,15,11.70
2012,08,27,02,16,11.70
2012,08,27,02,17,11.70
2012,08,27,02,18,11.70
2012,08,27,02,19,11.70
2012,08,27,02,20,11.70
2012,08,27,02,21,11.70
2012,08,27,02,22,11.60
2012,08,27,02,23,11.60
2012,08,27,02,24,11.60
2012,08,27,02,25,11.60
2012,08,27,02,26,11.60
2012,08,27,02,27,11.60
2012,08,27,02,28,11.60
2012,08,27,02,29,11.60
2012,08,27,02,30,11.60
2012,08,27,02,31,11.60
2012,08,27,02,32,11.60
2012,08,27,02,33,11.60
2012,08,27,02,34,11.50
2012,08,27,02,35,11.50
2012,08,27,02,36,11.50
2012,08,27,02,37,11.40
2012,08,27,02,38,11.40
2012,08,27,02,39,11.40
2012,08,27,02,40,11.40
2012,08,27,02,41,11.40
2012,08,27,02,42,11.40
2012,08,27,02,43,11.40
2012,08,27,02,44,11.40
2012,08,27,02,45,11.40
2012,08,27,02,46,11.40
2012,08,27,02,47,11.40
2012,08,27,02,48,11.40
2012,08,27,02,49,11.30
2012,08,27,02,50,11.40
2012,08,27,02,51,11.40
2012,08,27,02,52,11.40
2012,08,27,02,53,11.40
2012,08,27,02,54,11.40
2012,08,27,02,55,11.40
2012,08,27,02,56,11.30
2012,08,27,02,57,11.30
2012,08,27,02,58,11.30
2012,08,27,02,59,11.20
2012,08,27,03,00,11.20
2012,08,27,03,01,11.20
2012,08,27,03,02,11.10
2012,08,27,03,03,11.10
2012,08,27,03,04,11.10
2012,08,27,03,05,11.10
2012,08,27,03,06,11.00
2012,08,27,03,07,11.00
2012,08,27,03,08,10.90
2012,08,27,03,09,10.90
2012,08,27,03,10,10.90
2012,08,27,03,11,10.90
2012,08,27,03,12,10.90
2012,08,27,03,13,10.90
2012,08,27,03,14,10.90
2012,08,27,03,15,10.90
2012,08,27,03,16,10.90
2012,08,27,03,17,10.90
2012,08,27,03,18,10.90
2012,08,27,03,19,10.90
2012,08,27,03,20,10.90
2012,08,27,03,21,10.90
2012,08,27,03,22,10.90
2012,08,27,03,23,10.90
2012,08,27,03,24,10.90
2012,08,27,03,25,10.90
2012,08,27,03,26,10.90
2012,08,27,03,27,10.80
2012,08,27,03,28,10.80
2012,08,27,03,29,10.90
2012,08,27,03,30,10.90
2012,08,27,03,31,10.90
2012,08,27,03,32,10.90
2012,08,27,03,33,10.90
2012,08,27,03,34,11.00
2012,08,27,03,35,11.00
2012,08,27,03,36,11.00
2012,08,27,03,37,10.90
2012,08,27,03,38,10.90
2012,08,27,03,39,10.90
2012,08,27,03,40,10.90
2012,08,27,03,41,10.90
2012,08,27,03,42,10.80
2012,08,27,03,43,10.80
2012,08,27,03,44,10.80
2012,08,27,03,45,10.80
2012,08,27,03,46,10.80
2012,08,27,03,47,10.80
2012,08,27,03,48,10.80
2012,08,27,03,49,10.80
2012,08,27,03,50,10.80
2012,08,27,03,51,10.80
2012,08,27,03,52,10.80
2012,08,27,03,53,10.80
2012,08,27,03,54,10.80
2012,08,27,03,55,10.80
2012,08,27,03,56,10.70
2012,08,27,03,57,10.70
2012,08,27,03,58,10.70
2012,08,27,03,59,10.70
2012,08,27,04,00,10.70
2012,08,27,04,01,10.70
2012,08,27,04,02,10.70
2012,08,27,04,03,10.70
2012,08,27,04,04,10.70
2012,08,27,04,05,10.70
2012,08,27,04,06,10.70
2012,08,27,04,07,10.70
2012,08,27,04,08,10.70
2012,08,27,04,09,10.70
2012,08,27,04,10,10.70
2012,08,27,04,11,10.70
2012,08,27,04,12,10.60
2012,08,27,04,13,10.60
2012,08,27,04,14,10.50
2012,08,27,04,15,10.50
2012,08,27,04,16,10.40
2012,08,27,04,17,10.40
2012,08,27,04,18,10.30
2012,08,27,04,19,10.30
2012,08,27,04,20,10.30
2012,08,27,04,21,10.30
2012,08,27,04,22,10.30
2012,08,27,04,23,10.30
2012,08,27,04,24,10.30
2012,08,27,04,25,10.30
2012,08,27,04,26,10.30
2012,08,27,04,27,10.30
2012,08,27,04,28,10.30
2012,08,27,04,29,10.30
2012,08,27,04,30,10.30
2012,08,27,04,31,10.30
2012,08,27,04,32,10.30
2012,08,27,04,33,10.20
2012,08,27,04,34,10.20
2012,08,27,04,35,10.20
2012,08,27,04,36,10.20
2012,08,27,04,37,10.20
2012,08,27,04,38,10.20
2012,08,27,04,39,10.20
2012,08,27,04,40,10.20
2012,08,27,04,41,10.20
2012,08,27,04,42,10.20
2012,08,27,04,43,10.20
2012,08,27,04,44,10.20
2012,08,27,04,45,10.20
2012,08,27,04,46,10.20
2012,08,27,04,47,10.30
2012,08,27,04,48,10.30
2012,08,27,04,49,10.30
2012,08,27,04,50,10.40
2012,08,27,04,51,10.40
2012,08,27,04,52,10.40
2012,08,27,04,53,10.40
2012,08,27,04,54,10.40
2012,08,27,04,55,10.30
2012,08,27,04,56,10.30
2012,08,27,04,57,10.30
2012,08,27,04,58,10.30
2012,08,27,04,59,10.30
2012,08,27,05,00,10.40
2012,08,27,05,01,10.40
2012,08,27,05,02,10.40
2012,08,27,05,03,10.30
2012,08,27,05,04,10.30
2012,08,27,05,05,10.30
2012,08,27,05,06,10.30
2012,08,27,05,07,10.30
2012,08,27,05,08,10.30
2012,08,27,05,09,10.30
2012,08,27,05,10,10.30
2012,08,27,05,11,10.30
2012,08,27,05,12,10.30
2012,08,27,05,13,10.40
2012,08,27,05,14,10.40
2012,08,27,05,15,10.40
2012,08,27,05,16,10.40
2012,08,27,05,17,10.40
2012,08,27,05,18,10.40
2012,08,27,05,19,10.30
2012,08,27,05,20,10.30
2012,08,27,05,21,10.20
2012,08,27,05,22,10.20
2012,08,27,05,23,10.10
2012,08,27,05,24,10.10
2012,08,27,05,25,10.10
2012,08,27,05,26,10.00
2012,08,27,05,27,10.00
2012,08,27,05,28,10.10
2012,08,27,05,29,10.10
2012,08,27,05,30,10.10
2012,08,27,05,31,10.10
2012,08,27,05,32,10.10
2012,08,27,05,33,10.00
2012,08,27,05,34,10.00
2012,08,27,05,35,10.00
2012,08,27,05,36,9.90
2012,08,27,05,37,9.90
2012,08,27,05,38,9.90
2012,08,27,05,39,9.80
2012,08,27,05,40,9.80
2012,08,27,05,41,9.80
2012,08,27,05,42,9.80
2012,08,27,05,43,9.80
2012,08,27,05,44,9.80
2012,08,27,05,45,9.80
2012,08,27,05,46,9.80
2012,08,27,05,47,9.80
2012,08,27,05,48,9.80
2012,08,27,05,49,9.80
2012,08,27,05,50,9.80
2012,08,27,05,51,9.80
2012,08,27,05,52,9.80
2012,08,27,05,53,9.90
2012,08,27,05,54,9.90
2012,08,27,05,55,9.90
2012,08,27,05,56,9.90
2012,08,27,05,57,9.90
2012,08,27,05,58,9.90
2012,08,27,05,59,9.90
2012,08,27,06,00,9.90
2012,08,27,06,01,9.90
2012,08,27,06,02,9.90
2012,08,27,06,03,9.80
2012,08,27,06,04,9.80
2012,08,27,06,05,9.80
2012,08,27,06,06,9.80
2012,08,27,06,07,9.80
2012,08,27,06,08,9.80
2012,08,27,06,09,9.90
2012,08,27,06,10,9.90
2012,08,27,06,11,9.90
2012,08,27,06,12,9.90
2012,08,27,06,13,9.90
2012,08,27,06,14,9.90
2012,08,27,06,15,9.90
2012,08,27,06,16,9.90
2012,08,27,06,17,9.90
2012,08,27,06,18,9.90
2012,08,27,06,19,9.80
2012,08,27,06,20,9.80
2012,08,27,06,21,9.80
2012,08,27,06,22,9.90
2012,08,27,06,23,9.90
2012,08,27,06,24,9.90
2012,08,27,06,25,10.00
2012,08,27,06,26,10.10
2012,08,27,06,27,10.10
2012,08,27,06,28,10.20
2012,08,27,06,29,10.20
2012,08,27,06,30,10.30
2012,08,27,06,31,10.30
2012,08,27,06,32,10.20
2012,08,27,06,33,10.20
2012,08,27,06,34,10.20
2012,08,27,06,35,10.10
2012,08,27,06,36,10.10
2012,08,27,06,37,10.00
2012,08,27,06,38,10.00
2012,08,27,06,39,10.00
2012,08,27,06,40,10.00
2012,08,27,06,41,10.00
2012,08,27,06,42,10.00
2012,08,27,06,43,10.00
2012,08,27,06,44,10.00
2012,08,27,06,45,10.00
2012,08,27,06,46,10.00
2012,08,27,06,47,10.00
2012,08,27,06,48,10.00
2012,08,27,06,49,10.00
2012,08,27,06,50,10.00
2012,08,27,06,51,10.00
2012,08,27,06,52,10.00
2012,08,27,06,53,10.00
2012,08,27,06,54,9.90
2012,08,27,06,55,9.90
2012,08,27,06,56,9.90
2012,08,27,06,57,9.90
2012,08,27,06,58,9.90
2012,08,27,06,59,9.90
2012,08,27,07,00,9.90
2012,08,27,07,01,9.90
2012,08,27,07,02,10.00
2012,08,27,07,03,10.00
2012,08,27,07,04,10.00
2012,08,27,07,05,10.10
2012,08,27,07,06,10.10
2012,08,27,07,07,10.10
2012,08,27,07,08,10.10
2012,08,27,07,09,10.10
2012,08,27,07,10,10.10
2012,08,27,07,11,10.10
2012,08,27,07,12,10.10
2012,08,27,07,13,10.10
2012,08,27,07,14,10.10
2012,08,27,07,15,10.10
2012,08,27,07,16,10.10
2012,08,27,07,17,10.10
2012,08,27,07,18,10.10
2012,08,27,07,19,10.10
2012,08,27,07,20,10.20
2012,08,27,07,21,10.20
2012,08,27,07,22,10.20
2012,08,27,07,23,10.20
2012,08,27,07,24,10.20
2012,08,27,07,25,10.20
2012,08,27,07,26,10.30
2012,08,27,07,27,10.30
2012,08,27,07,28,10.30
2012,08,27,07,29,10.30
2012,08,27,07,30,10.30
2012,08,27,07,31,10.30
2012,08,27,07,32,10.30
2012,08,27,07,33,10.30
2012,08,27,07,34,10.30
2012,08,27,07,35,10.30
2012,08,27,07,36,10.40
2012,08,27,07,37,10.40
2012,08,27,07,38,10.40
2012,08,27,07,39,10.50
2012,08,27,07,40,10.50
2012,08,27,07,41,10.60
2012,08,27,07,42,10.60
2012,08,27,07,43,10.60
2012,08,27,07,44,10.60
2012,08,27,07,45,10.70
2012,08,27,07,46,10.80
2012,08,27,07,47,10.90
2012,08,27,07,48,10.90
2012,08,27,07,49,11.00
2012,08,27,07,50,11.00
2012,08,27,07,51,11.00
2012,08,27,07,52,11.10
2012,08,27,07,53,11.10
2012,08,27,07,54,11.10
2012,08,27,07,55,11.20
2012,08,27,07,56,11.20
2012,08,27,07,57,11.20
2012,08,27,07,58,11.20
2012,08,27,07,59,11.30
2012,08,27,08,00,11.30
2012,08,27,08,01,11.30
2012,08,27,08,02,11.40
2012,08,27,08,03,11.40
2012,08,27,08,04,11.40
2012,08,27,08,05,11.40
2012,08,27,08,06,11.40
2012,08,27,08,07,11.50
2012,08,27,08,08,11.50
2012,08,27,08,09,11.50
2012,08,27,08,10,11.60
2012,08,27,08,11,11.60
2012,08,27,08,12,11.60
2012,08,27,08,13,11.60
2012,08,27,08,14,11.60
2012,08,27,08,15,11.70
2012,08,27,08,16,11.70
2012,08,27,08,17,11.70
2012,08,27,08,18,11.80
2012,08,27,08,19,11.80
2012,08,27,08,20,11.80
2012,08,27,08,21,11.80
2012,08,27,08,22,11.90
2012,08,27,08,23,11.90
2012,08,27,08,24,11.90
2012,08,27,08,25,12.00
2012,08,27,08,26,12.00
2012,08,27,08,27,12.10
2012,08,27,08,28,12.10
2012,08,27,08,29,12.20
2012,08,27,08,30,12.20
2012,08,27,08,31,12.20
2012,08,27,08,32,12.20
2012,08,27,08,33,12.30
2012,08,27,08,34,12.30
2012,08,27,08,35,12.30
2012,08,27,08,36,12.30
2012,08,27,08,37,12.40
2012,08,27,08,38,12.40
2012,08,27,08,39,12.40
2012,08,27,08,40,12.40
2012,08,27,08,41,12.40
2012,08,27,08,42,12.50
2012,08,27,08,43,12.50
2012,08,27,08,44,12.60
2012,08,27,08,45,12.60
2012,08,27,08,46,12.60
2012,08,27,08,47,12.60
2012,08,27,08,48,12.70
2012,08,27,08,49,12.70
2012,08,27,08,50,12.80
2012,08,27,08,51,12.80
2012,08,27,08,52,12.80
2012,08,27,08,53,12.90
2012,08,27,08,54,12.90
2012,08,27,08,55,12.90
2012,08,27,08,56,13.00
2012,08,27,08,57,13.10
2012,08,27,08,58,13.10
2012,08,27,08,59,13.20
2012,08,27,09,00,13.20
2012,08,27,09,01,13.30
2012,08,27,09,02,13.40
2012,08,27,09,03,13.60
2012,08,27,09,04,13.70
2012,08,27,09,05,13.80
2012,08,27,09,06,13.90
2012,08,27,09,07,13.90
2012,08,27,09,08,13.90
2012,08,27,09,09,13.90
2012,08,27,09,10,13.90
2012,08,27,09,11,14.00
2012,08,27,09,12,14.10
2012,08,27,09,13,14.10
2012,08,27,09,14,14.10
2012,08,27,09,15,14.10
2012,08,27,09,16,14.10
2012,08,27,09,17,14.10
2012,08,27,09,18,14.20
2012,08,27,09,19,14.20
2012,08,27,09,20,14.30
2012,08,27,09,21,14.40
2012,08,27,09,22,14.50
2012,08,27,09,23,14.60
2012,08,27,09,24,14.70
2012,08,27,09,25,14.80
2012,08,27,09,26,15.00
2012,08,27,09,27,15.00
2012,08,27,09,28,15.00
2012,08,27,09,29,15.00
2012,08,27,09,30,15.00
2012,08,27,09,31,15.00
2012,08,27,09,32,15.00
2012,08,27,09,33,15.00
2012,08,27,09,34,15.00
2012,08,27,09,35,15.00
2012,08,27,09,36,15.00
2012,08,27,09,37,15.00
2012,08,27,09,38,15.00
2012,08,27,09,39,15.00
2012,08,27,09,40,15.00
2012,08,27,09,41,15.00
2012,08,27,09,42,15.00
2012,08,27,09,43,15.00
2012,08,27,09,44,15.00
2012,08,27,09,45,15.00
2012,08,27,09,46,15.00
2012,08,27,09,47,15.00
2012,08,27,09,48,15.00
2012,08,27,09,49,15.00
2012,08,27,09,50,15.10
2012,08,27,09,51,15.10
2012,08,27,09,52,15.10
2012,08,27,09,53,15.20
2012,08,27,09,54,15.20
2012,08,27,09,55,15.20
2012,08,27,09,56,15.20
2012,08,27,09,57,15.20
2012,08,27,09,58,15.30
2012,08,27,09,59,15.30
2012,08,27,10,00,15.30
2012,08,27,10,01,15.30
2012,08,27,10,02,15.40
2012,08,27,10,03,15.40
2012,08,27,10,04,15.40
2012,08,27,10,05,15.40
2012,08,27,10,06,15.40
2012,08,27,10,07,15.30
2012,08,27,10,08,15.30
2012,08,27,10,09,15.30
2012,08,27,10,10,15.30
2012,08,27,10,11,15.30
2012,08,27,10,12,15.30
2012,08,27,10,13,15.30
2012,08,27,10,14,15.30
2012,08,27,10,15,15.40
2012,08,27,10,16,15.40
2012,08,27,10,17,15.50
2012,08,27,10,18,15.50
2012,08,27,10,19,15.50
2012,08,27,10,20,15.50
2012,08,27,10,21,15.50
2012,08,27,10,22,15.50
2012,08,27,10,23,15.50
2012,08,27,10,24,15.50
2012,08,27,10,25,15.60
2012,08,27,10,26,15.60
2012,08,27,10,27,15.60
2012,08,27,10,28,15.50
2012,08,27,10,29,15.50
2012,08,27,10,30,15.40
2012,08,27,10,31,15.40
2012,08,27,10,32,15.40
2012,08,27,10,33,15.40
2012,08,27,10,34,15.30
2012,08,27,10,35,15.30
2012,08,27,10,36,15.30
2012,08,27,10,37,15.30
2012,08,27,10,38,15.30
2012,08,27,10,39,15.30
2012,08,27,10,40,15.30
2012,08,27,10,41,15.30
2012,08,27,10,42,15.30
2012,08,27,10,43,15.20
2012,08,27,10,44,15.20
2012,08,27,10,45,15.20
2012,08,27,10,46,15.20
2012,08,27,10,47,15.20
2012,08,27,10,48,15.30
2012,08,27,10,49,15.30
2012,08,27,10,50,15.40
2012,08,27,10,51,15.50
2012,08,27,10,52,15.50
2012,08,27,10,53,15.60
2012,08,27,10,54,15.60
2012,08,27,10,55,15.70
2012,08,27,10,56,15.70
2012,08,27,10,57,15.80
2012,08,27,10,58,15.80
2012,08,27,10,59,16.00
2012,08,27,11,00,16.10
2012,08,27,11,01,16.00
2012,08,27,11,02,16.00
2012,08,27,11,03,16.10
2012,08,27,11,04,16.00
2012,08,27,11,05,16.00
2012,08,27,11,06,15.90
2012,08,27,11,07,15.90
2012,08,27,11,08,15.90
2012,08,27,11,09,15.90
2012,08,27,11,10,15.90
2012,08,27,11,11,15.90
2012,08,27,11,12,15.90
2012,08,27,11,13,16.00
2012,08,27,11,14,16.00
2012,08,27,11,15,16.00
2012,08,27,11,16,16.00
2012,08,27,11,17,16.00
2012,08,27,11,18,16.00
2012,08,27,11,19,16.00
2012,08,27,11,20,16.10
2012,08,27,11,21,16.30
2012,08,27,11,22,16.40
2012,08,27,11,23,16.50
2012,08,27,11,24,16.60
2012,08,27,11,25,16.70
2012,08,27,11,26,16.80
2012,08,27,11,27,16.80
2012,08,27,11,28,16.90
2012,08,27,11,29,16.90
2012,08,27,11,30,16.80
2012,08,27,11,31,16.70
2012,08,27,11,32,16.70
2012,08,27,11,33,16.80
2012,08,27,11,34,16.90
2012,08,27,11,35,16.90
2012,08,27,11,36,16.90
2012,08,27,11,37,16.90
2012,08,27,11,38,16.90
2012,08,27,11,39,16.80
2012,08,27,11,40,16.70
2012,08,27,11,41,16.60
2012,08,27,11,42,16.60
2012,08,27,11,43,16.60
2012,08,27,11,44,16.80
2012,08,27,11,45,16.80
2012,08,27,11,46,16.90
2012,08,27,11,47,16.90
2012,08,27,11,48,16.70
2012,08,27,11,49,16.40
2012,08,27,11,50,16.20
2012,08,27,11,51,16.10
2012,08,27,11,52,16.00
2012,08,27,11,53,15.90
2012,08,27,11,54,15.80
2012,08,27,11,55,15.70
2012,08,27,11,56,15.60
2012,08,27,11,57,15.40
2012,08,27,11,58,15.40
2012,08,27,11,59,15.40
2012,08,27,12,00,15.30
2012,08,27,12,01,15.30
2012,08,27,12,02,15.30
2012,08,27,12,03,15.40
2012,08,27,12,04,15.40
2012,08,27,12,05,15.40
2012,08,27,12,06,15.40
2012,08,27,12,07,15.40
2012,08,27,12,08,15.30
2012,08,27,12,09,15.30
2012,08,27,12,10,15.20
2012,08,27,12,11,15.20
2012,08,27,12,12,15.20
2012,08,27,12,13,15.30
2012,08,27,12,14,15.30
2012,08,27,12,15,15.30
2012,08,27,12,16,15.40
2012,08,27,12,17,15.50
2012,08,27,12,18,15.60
2012,08,27,12,19,15.60
2012,08,27,12,20,15.70
2012,08,27,12,21,15.70
2012,08,27,12,22,15.70
2012,08,27,12,23,15.80
2012,08,27,12,24,15.90
2012,08,27,12,25,16.00
2012,08,27,12,26,16.10
2012,08,27,12,27,16.10
2012,08,27,12,28,16.10
2012,08,27,12,29,16.10
2012,08,27,12,30,16.20
2012,08,27,12,31,16.20
2012,08,27,12,32,16.20
2012,08,27,12,33,16.30
2012,08,27,12,34,16.30
2012,08,27,12,35,16.20
2012,08,27,12,36,16.10
2012,08,27,12,37,16.10
2012,08,27,12,38,16.10
2012,08,27,12,39,16.10
2012,08,27,12,40,16.00
2012,08,27,12,41,15.90
2012,08,27,12,42,15.80
2012,08,27,12,43,15.70
2012,08,27,12,44,15.70
2012,08,27,12,45,15.80
2012,08,27,12,46,15.80
2012,08,27,12,47,15.90
2012,08,27,12,48,16.00
2012,08,27,12,49,16.10
2012,08,27,12,50,16.20
2012,08,27,12,51,16.30
2012,08,27,12,52,16.30
2012,08,27,12,53,16.30
2012,08,27,12,54,16.30
2012,08,27,12,55,16.20
2012,08,27,12,56,16.20
2012,08,27,12,57,16.30
2012,08,27,12,58,16.30
2012,08,27,12,59,16.30
2012,08,27,13,00,16.50
2012,08,27,13,01,16.60
2012,08,27,13,02,16.70
2012,08,27,13,03,16.80
2012,08,27,13,04,16.90
2012,08,27,13,05,17.00
2012,08,27,13,06,17.10
2012,08,27,13,07,17.20
2012,08,27,13,08,17.20
2012,08,27,13,09,17.20
2012,08,27,13,10,17.30
2012,08,27,13,11,17.30
2012,08,27,13,12,17.30
2012,08,27,13,13,17.40
2012,08,27,13,14,17.40
2012,08,27,13,15,17.50
2012,08,27,13,16,17.50
2012,08,27,13,17,17.60
2012,08,27,13,18,17.60
2012,08,27,13,19,17.60
2012,08,27,13,20,17.70
2012,08,27,13,21,17.70
2012,08,27,13,22,17.70
2012,08,27,13,23,17.70
2012,08,27,13,24,17.70
2012,08,27,13,25,17.80
2012,08,27,13,26,17.80
2012,08,27,13,27,17.80
2012,08,27,13,28,17.90
2012,08,27,13,29,18.10
2012,08,27,13,30,18.10
2012,08,27,13,31,18.10
2012,08,27,13,32,18.10
2012,08,27,13,33,18.10
2012,08,27,13,34,18.10
2012,08,27,13,35,18.20
2012,08,27,13,36,18.20
2012,08,27,13,37,18.30
2012,08,27,13,38,18.30
2012,08,27,13,39,18.40
2012,08,27,13,40,18.50
2012,08,27,13,41,18.50
2012,08,27,13,42,18.60
2012,08,27,13,43,18.60
2012,08,27,13,44,18.60
2012,08,27,13,45,18.60
2012,08,27,13,46,18.50
2012,08,27,13,47,18.60
2012,08,27,13,48,18.70
2012,08,27,13,49,18.80
2012,08,27,13,50,18.90
2012,08,27,13,51,18.90
2012,08,27,13,52,19.00
2012,08,27,13,53,19.10
2012,08,27,13,54,19.20
2012,08,27,13,55,19.20
2012,08,27,13,56,19.30
2012,08,27,13,57,19.30
2012,08,27,13,58,19.30
2012,08,27,13,59,19.30
2012,08,27,14,00,19.40
2012,08,27,14,01,19.40
2012,08,27,14,02,19.50
2012,08,27,14,03,19.50
2012,08,27,14,04,19.60
2012,08,27,14,05,19.60
2012,08,27,14,06,19.60
2012,08,27,14,07,19.60
2012,08,27,14,08,19.60
2012,08,27,14,09,19.50
2012,08,27,14,10,19.50
2012,08,27,14,11,19.50
2012,08,27,14,12,19.40
2012,08,27,14,13,19.40
2012,08,27,14,14,19.30
2012,08,27,14,15,19.30
2012,08,27,14,16,19.30
2012,08,27,14,17,19.30
2012,08,27,14,18,19.30
2012,08,27,14,19,19.30
2012,08,27,14,20,19.40
2012,08,27,14,21,19.40
2012,08,27,14,22,19.40
2012,08,27,14,23,19.40
2012,08,27,14,24,19.50
2012,08,27,14,25,19.60
2012,08,27,14,26,19.60
2012,08,27,14,27,19.70
2012,08,27,14,28,19.70
2012,08,27,14,29,19.70
2012,08,27,14,30,19.80
2012,08,27,14,31,19.90
2012,08,27,14,32,20.00
2012,08,27,14,33,20.00
2012,08,27,14,34,20.10
2012,08,27,14,35,20.10
2012,08,27,14,36,20.10
2012,08,27,14,37,20.10
2012,08,27,14,38,20.20
2012,08,27,14,39,20.10
2012,08,27,14,40,20.20
2012,08,27,14,41,20.20
2012,08,27,14,42,20.20
2012,08,27,14,43,20.20
2012,08,27,14,44,20.20
2012,08,27,14,45,20.20
2012,08,27,14,46,20.30
2012,08,27,14,47,20.30
2012,08,27,14,48,20.30
2012,08,27,14,49,20.30
2012,08,27,14,50,20.30
2012,08,27,14,51,20.30
2012,08,27,14,52,20.30
2012,08,27,14,53,20.30
2012,08,27,14,54,20.40
2012,08,27,14,55,20.40
2012,08,27,14,56,20.40
2012,08,27,14,57,20.40
2012,08,27,14,58,20.40
2012,08,27,14,59,20.40
2012,08,27,15,00,20.40
2012,08,27,15,01,20.50
2012,08,27,15,02,20.50
2012,08,27,15,03,20.60
2012,08,27,15,04,20.70
2012,08,27,15,05,20.80
2012,08,27,15,06,20.80
2012,08,27,15,07,20.80
2012,08,27,15,08,20.70
2012,08,27,15,09,20.60
2012,08,27,15,10,20.40
2012,08,27,15,11,20.30
2012,08,27,15,12,20.20
2012,08,27,15,13,20.30
2012,08,27,15,14,20.30
2012,08,27,15,15,20.40
2012,08,27,15,16,20.50
2012,08,27,15,17,20.60
2012,08,27,15,18,20.70
2012,08,27,15,19,20.80
2012,08,27,15,20,20.80
2012,08,27,15,21,20.80
2012,08,27,15,22,20.80
2012,08,27,15,23,20.90
2012,08,27,15,24,21.00
2012,08,27,15,25,21.00
2012,08,27,15,26,21.10
2012,08,27,15,27,21.10
2012,08,27,15,28,21.10
2012,08,27,15,29,21.10
2012,08,27,15,30,21.10
2012,08,27,15,31,21.10
2012,08,27,15,32,21.10
2012,08,27,15,33,21.20
2012,08,27,15,34,21.10
2012,08,27,15,35,21.00
2012,08,27,15,36,20.90
2012,08,27,15,37,20.90
2012,08,27,15,38,21.00
2012,08,27,15,39,21.00
2012,08,27,15,40,21.00
2012,08,27,15,41,21.00
2012,08,27,15,42,21.00
2012,08,27,15,43,20.90
2012,08,27,15,44,21.00
2012,08,27,15,45,20.90
2012,08,27,15,46,21.00
2012,08,27,15,47,21.00
2012,08,27,15,48,21.10
2012,08,27,15,49,21.20
2012,08,27,15,50,21.30
2012,08,27,15,51,21.30
2012,08,27,15,52,21.30
2012,08,27,15,53,21.30
2012,08,27,15,54,21.30
2012,08,27,15,55,21.40
2012,08,27,15,56,21.40
2012,08,27,15,57,21.40
2012,08,27,15,58,21.50
2012,08,27,15,59,21.50
2012,08,27,16,00,21.50
2012,08,27,16,01,21.50
2012,08,27,16,02,21.50
2012,08,27,16,03,21.40
2012,08,27,16,04,21.30
2012,08,27,16,05,21.20
2012,08,27,16,06,21.10
2012,08,27,16,07,21.10
2012,08,27,16,08,21.00
2012,08,27,16,09,20.90
2012,08,27,16,10,20.90
2012,08,27,16,11,20.90
2012,08,27,16,12,20.90
2012,08,27,16,13,20.90
2012,08,27,16,14,20.90
2012,08,27,16,15,21.00
2012,08,27,16,16,21.00
2012,08,27,16,17,21.00
2012,08,27,16,18,21.10
2012,08,27,16,19,21.10
2012,08,27,16,20,21.00
2012,08,27,16,21,21.00
2012,08,27,16,22,21.00
2012,08,27,16,23,21.00
2012,08,27,16,24,21.10
2012,08,27,16,25,21.10
2012,08,27,16,26,21.10
2012,08,27,16,27,21.20
2012,08,27,16,28,21.10
2012,08,27,16,29,21.10
2012,08,27,16,30,21.10
2012,08,27,16,31,21.20
2012,08,27,16,32,21.30
2012,08,27,16,33,21.30
2012,08,27,16,34,21.40
2012,08,27,16,35,21.50
2012,08,27,16,36,21.50
2012,08,27,16,37,21.60
2012,08,27,16,38,21.70
2012,08,27,16,39,21.80
2012,08,27,16,40,21.90
2012,08,27,16,41,21.90
2012,08,27,16,42,21.90
2012,08,27,16,43,21.90
2012,08,27,16,44,21.90
2012,08,27,16,45,22.00
2012,08,27,16,46,22.00
2012,08,27,16,47,22.10
2012,08,27,16,48,22.10
2012,08,27,16,49,22.10
2012,08,27,16,50,22.10
2012,08,27,16,51,22.10
2012,08,27,16,52,22.10
2012,08,27,16,53,22.10
2012,08,27,16,54,22.10
2012,08,27,16,55,22.10
2012,08,27,16,56,22.10
2012,08,27,16,57,22.10
2012,08,27,16,58,22.00
2012,08,27,16,59,21.90
2012,08,27,17,00,21.90
2012,08,27,17,01,21.80
2012,08,27,17,02,21.90
2012,08,27,17,03,22.00
2012,08,27,17,04,22.10
2012,08,27,17,05,22.10
2012,08,27,17,06,22.10
2012,08,27,17,07,22.00
2012,08,27,17,08,22.00
2012,08,27,17,09,22.00
2012,08,27,17,10,22.00
2012,08,27,17,11,21.90
2012,08,27,17,12,21.90
2012,08,27,17,13,21.80
2012,08,27,17,14,21.80
2012,08,27,17,15,21.80
2012,08,27,17,16,21.80
2012,08,27,17,17,21.80
2012,08,27,17,18,21.70
2012,08,27,17,19,21.70
2012,08,27,17,20,21.70
2012,08,27,17,21,21.80